{"data":{"norad_id":60575,"epoch":"2026-05-25T02:25:49.894752Z","epoch_age_seconds":56458,"freshness":"FRESH","line1":"1 60575U 24149DM  26145.10127193  .00001500  00000+0  13732-3 0  9999","line2":"2 60575  97.6740 220.1509 0004675 121.1784 238.9896 14.96431887 96532","mean_motion":14.96431887,"eccentricity":0.0004675,"inclination_deg":97.674,"raan_deg":220.1509,"arg_perigee_deg":121.1784,"mean_anomaly_deg":238.9896,"bstar":0.00013732,"rev_number":9653,"period_min":96.228903734928,"perigee_km":574.67989021931,"apogee_km":581.18381459631,"semimajor_km":6956.0688524078,"source":"CELESTRAK","updated_at":"2026-05-25T13:38:02.156210Z"}}